Location: Bouchavesnes-Bergen
(49.9859°N, 2.9203°E)
Time: 00:04:18
(UTC+00:00)

Cosmos 2344 - Pass Details

Date: 09 March 2021
Orbit: 1241 x 3001 km, 63.3° (Epoch: 12 April)

Event Time Altitude Azimuth Distance (km) Brightness Sun altitude
Exits shadow 03:46:39 38° 214° (SSW) 1,809 3.9 -24.1°
Maximum altitude 03:49:53 83° 131° (SE) 1,273 3.5 -23.7°
Drops below altitude 10° 03:57:59 10° 44° (NE) 3,513 6.8 -22.4°
Sets 04:01:07 0° 44° (NE) 4,654 7.6 -22.0°
